Regional Weather Roundup
Issued by NWS Charleston, WV

Home | Current Version | Previous Version | Text Only | Print | Product List | Glossary Off
Versions: 1 2 3 4 5 6 7 8 9 10 11 12 13 14 15 16 17 18 19 20 21 22 23 24 25 26 27 28 29 30 31 32 33 34 35 36 37 38 39 40 41 42 43 44 45 46 47 48 49 50

968
ASUS41 KRLX 011310
RWRRLX
West Virginia Regional Weather Roundup
National Weather Service Charleston WV
900 AM EDT SUN MAY 01 2016

Note: "fair" indicates few or no clouds below 12,000 feet with no
significant weather and/or obstructions to visibility.

WVZ003-011400-
Northern Panhandle of West Virginia

CITY           SKY/WX    TMP DP  RH WIND       PRES   REMARKS
WHEELING       CLOUDY    61  58  90 SW7       29.95R
$$

WVZ009-011400-
Northwest West Virginia

CITY           SKY/WX    TMP DP  RH WIND       PRES   REMARKS
PARKERSBURG    CLOUDY    62  59  90 S6        29.99R
$$

WVZ006-011400-
Western West Virginia

CITY           SKY/WX    TMP DP  RH WIND       PRES   REMARKS
HUNTINGTON     RAIN      62  60  93 S7        29.98R
$$

WVZ015-011400-
West Central West Virginia

CITY           SKY/WX    TMP DP  RH WIND       PRES   REMARKS
CHARLESTON     PTSUNNY   61  58  90 CALM      29.98S
$$

WVZ022-031-011400-
North Central West Virginia

CITY           SKY/WX    TMP DP  RH WIND       PRES   REMARKS
CLARKSBURG     CLOUDY    61  58  90 SW6       29.98R
MORGANTOWN     CLOUDY    62  56  80 SW8       29.99R
$$

WVZ025-035-042-045-011400-
Southern West Virginia

CITY           SKY/WX    TMP DP  RH WIND       PRES   REMARKS
BECKLEY        CLOUDY    56  54  93 SE7       30.06R
LOGAN          NOT AVBL
BLUEFIELD      RAIN      54  53  97 SE3       30.09S FOG
LEWISBURG      LGT RAIN  52  52  98 CALM      30.08S
$$

WVZ047-011400-
Northern Mountains of West Virginia

CITY           SKY/WX    TMP DP  RH WIND       PRES   REMARKS
ELKINS         LGT RAIN  56  53  90 SE7       30.01F
$$

WVZ052-011400-
Eastern Panhandle of West Virginia

CITY           SKY/WX    TMP DP  RH WIND       PRES   REMARKS
MARTINSBURG    LGT RAIN  52  51  97 SE6       30.06S
PETERSBURG     LGT RAIN  58  56  91 S6        30.03S
$$




USA.gov is the U.S. government's official web portal to all federal, state and local government web resources and services.